FW5303 Weather Reports


Display with metric or nautical units.
time (UTC)temp
F
wind
direction
speed
MPH
gust
MPH
rain 1hr
in
rain 24hr
in
rain mn
in
humidity
%
barometer
mb
20260505164535 69 136 0.0 9.0 0.00 0.00 0.00 59 1015.2
20260505163029 69 176 0.0 5.0 0.00 0.00 0.00 60 1015.2
20260505161535 68 226 0.0 3.0 0.00 0.00 0.00 61 1015.2
20260505153029 65 241 0.0 2.0 0.00 0.00 0.00 64 1015.0
20260505151607 65 259 0.0 3.0 0.00 0.00 0.00 66 1015.0
20260505140107 59 199 0.0 11.0 0.00 0.00 0.00 72 1014.5
20260505130143 61 274 0.0 4.0 0.00 0.00 0.00 67 1013.7
20260505124530 61 251 0.0 4.0 0.00 0.00 0.00 67 1013.6
20260505123031 62 222 0.0 4.0 0.00 0.00 0.00 67 1013.4
20260505121534 62 223 0.0 0.0 0.00 0.00 0.00 66 1013.2
20260505120030 62 228 0.0 6.0 0.00 0.00 0.00 66 1013.1
20260505114534 63 219 0.0 15.0 0.00 0.00 0.00 65 1013.1
20260505113038 63 198 0.0 10.0 0.00 0.00 0.00 65 1013.0
20260505111536 63 194 0.0 14.0 0.00 0.00 0.00 65 1012.8
20260505101531 65 212 0.0 11.0 0.00 0.00 0.00 63 1012.3
20260505100040 64 211 0.0 12.0 0.00 0.00 0.00 65 1012.3
20260505093032 63 207 0.0 14.0 0.00 0.00 0.00 67 1012.2
20260505091529 63 218 0.0 13.0 0.00 0.00 0.00 68 1012.0
20260505090031 63 207 0.0 11.0 0.00 0.00 0.00 66 1011.9
20260505084537 65 217 0.0 5.0 0.00 0.00 0.00 64 1011.8
20260505083032 64 222 0.0 12.0 0.00 0.00 0.00 65 1011.8
20260505080033 66 229 0.0 4.0 0.00 0.00 0.00 63 1011.7
20260505074536 66 219 0.0 11.0 0.00 0.00 0.00 63 1011.5
20260505073037 64 214 0.0 0.0 0.00 0.00 0.00 68 1011.5
20260505071532 62 217 0.0 3.0 0.00 0.00 0.00 69 1011.4
20260505070036 62 195 0.0 0.0 0.00 0.00 0.00 66 1011.3
20260505064534 65 268 0.0 0.0 0.00 0.00 0.00 61 1011.2
20260505063106 68 149 0.0 2.0 0.00 0.00 0.00 56 1011.1
20260505061538 69 203 0.0 13.0 0.00 0.00 0.00 54 1011.0
20260505060029 69 209 0.0 14.0 0.00 0.00 0.00 53 1010.9
20260505054530 69 213 0.0 12.0 0.00 0.00 0.00 53 1010.8
20260505053033 69 222 0.0 15.0 0.00 0.00 0.00 53 1010.7
20260505051538 69 225 0.0 6.0 0.00 0.00 0.00 52 1010.7
20260505041532 70 222 0.0 0.0 0.00 0.00 0.00 48 1010.0
20260505040048 71 215 0.0 0.0 0.00 0.00 0.00 47 1009.8
20260505034533 72 210 0.0 0.0 0.00 0.00 0.00 46 1009.5
20260505033033 72 214 0.0 4.0 0.00 0.00 0.00 46 1009.4
20260505031531 73 214 0.0 9.0 0.00 0.00 0.00 45 1009.2
20260505030038 74 214 0.0 7.0 0.00 0.00 0.00 44 1009.0
20260505024617 75 214 0.0 15.0 0.00 0.00 0.00 43 1008.7
20260505021533 76 211 0.0 14.0 0.00 0.00 0.00 43 1008.7
20260505020120 77 221 0.0 15.0 0.00 0.00 0.00 42 1008.7
20260505014533 78 221 0.0 11.0 0.00 0.00 0.00 40 1008.6
20260505013032 79 218 0.0 16.0 0.00 0.00 0.00 39 1008.5
20260505011536 80 214 0.0 11.0 0.00 0.00 0.00 38 1008.5
20260505004530 82 208 0.0 12.0 0.00 0.00 0.00 36 1008.4
20260505003031 83 209 0.0 13.0 0.00 0.00 0.00 35 1008.5
20260505001641 84 226 0.0 12.0 0.00 0.00 0.00 35 1008.5
20260505000040 84 217 0.0 11.0 0.00 0.00 0.00 35 1008.6
20260504234535 85 222 0.0 6.0 0.00 0.00 0.00 35 1008.6
20260504233036 85 211 0.0 6.0 0.00 0.00 0.00 34 1008.6
20260504231536 86 214 0.0 9.0 0.00 0.00 0.00 34 1008.7
20260504230030 87 208 0.0 10.0 0.00 0.00 0.00 34 1008.8
20260504224532 87 219 0.0 5.0 0.00 0.00 0.00 33 1008.9
20260504223035 88 250 0.0 5.0 0.00 0.00 0.00 34 1009.1
20260504221532 88 210 0.0 0.0 0.00 0.00 0.00 33 1009.2
20260504220031 88 203 0.0 11.0 0.00 0.00 0.00 33 1009.4
20260504214536 88 248 0.0 7.0 0.00 0.00 0.00 33 1009.6
20260504213031 88 194 0.0 8.0 0.00 0.00 0.00 33 1009.8
20260504211533 88 205 0.0 6.0 0.00 0.00 0.00 33 1009.9
20260504204605 88 225 0.0 8.0 0.00 0.00 0.00 32 1010.1
20260504203143 87 215 0.0 8.0 0.00 0.00 0.00 33 1010.3
20260504201534 87 205 0.0 5.0 0.00 0.00 0.00 34 1010.4
20260504200150 86 241 0.0 6.0 0.00 0.00 0.00 34 1010.6
20260504194530 85 232 0.0 7.0 0.00 0.00 0.00 34 1010.6
20260504193037 84 224 0.0 6.0 0.00 0.00 0.00 34 1010.7
20260504191608 84 240 0.0 4.0 0.00 0.00 0.00 35 1010.8
20260504190148 84 155 0.0 8.0 0.00 0.00 0.00 36 1010.9
20260504183139 81 279 1.0 10.0 0.00 0.00 0.00 37 1011.0
20260504181649 81 302 1.0 14.0 0.00 0.00 0.00 38 1011.1
20260504173032 77 152 0.0 1.0 0.00 0.00 0.00 48 1011.1
20260504171530 77 50 2.0 5.0 0.00 0.00 0.00 49 1011.2